SWA2649 KLAS-KDEN

Flight info

Callsign SWA2649
Flight time N/A
Altitude 37000
Route GIDGT3 TUKRR BUMMP SSKII4
Aircraft B738/M-SADE2E3GIJ4RWZ/LB1D1

Departure

Time 2026-05-04 23:36
Airport Harry Reid International Airport (KLAS)

Arrival

Time N/A
Airport Denver International Airport (KDEN)
Time Latitude Longitude Altitude Speed Heading
2026-05-04 23:00 36.08340 -115.15264 2111 ft 0 kts 175°
2026-05-04 23:10 36.08341 -115.15264 2111 ft 1 kts 175°
2026-05-04 23:10 36.08356 -115.15266 2111 ft 2 kts 169°
2026-05-04 23:10 36.08369 -115.15273 2110 ft 2 kts 147°
2026-05-04 23:11 36.08380 -115.15284 2110 ft 2 kts 129°
2026-05-04 23:11 36.08388 -115.15300 2111 ft 2 kts 116°
2026-05-04 23:11 36.08395 -115.15316 2111 ft 2 kts 121°
2026-05-04 23:11 36.08402 -115.15331 2111 ft 1 kts 118°
2026-05-04 23:12 36.08409 -115.15338 2111 ft 1 kts 179°
2026-05-04 23:12 36.08419 -115.15334 2111 ft 1 kts 234°
2026-05-04 23:12 36.08421 -115.15327 2110 ft 0 kts 251°
2026-05-04 23:12 36.08423 -115.15323 2110 ft 0 kts 246°
2026-05-04 23:17 36.08423 -115.15322 2110 ft 0 kts 246°
2026-05-04 23:17 36.08422 -115.15324 2110 ft 0 kts 245°
2026-05-04 23:18 36.08416 -115.15339 2111 ft 2 kts 245°
2026-05-04 23:18 36.08405 -115.15367 2112 ft 4 kts 244°
2026-05-04 23:18 36.08389 -115.15411 2114 ft 6 kts 245°
2026-05-04 23:18 36.08370 -115.15459 2116 ft 3 kts 241°
2026-05-04 23:19 36.08358 -115.15479 2118 ft 4 kts 219°
2026-05-04 23:19 36.08314 -115.15483 2119 ft 9 kts 162°
2026-05-04 23:19 36.08232 -115.15435 2120 ft 15 kts 158°
2026-05-04 23:19 36.08114 -115.15437 2122 ft 19 kts 190°
2026-05-04 23:20 36.08001 -115.15402 2125 ft 14 kts 155°
2026-05-04 23:20 36.07908 -115.15348 2125 ft 14 kts 153°
2026-05-04 23:20 36.07827 -115.15340 2126 ft 10 kts 217°
2026-05-04 23:20 36.07803 -115.15412 2129 ft 7 kts 268°
2026-05-04 23:21 36.07802 -115.15470 2131 ft 5 kts 269°
2026-05-04 23:21 36.07802 -115.15490 2132 ft 0 kts 269°
2026-05-04 23:21 36.07802 -115.15494 2132 ft 1 kts 269°
2026-05-04 23:22 36.07802 -115.15519 2133 ft 4 kts 270°
2026-05-04 23:22 36.07802 -115.15579 2136 ft 9 kts 269°
2026-05-04 23:22 36.07801 -115.15687 2140 ft 14 kts 269°
2026-05-04 23:22 36.07808 -115.15802 2144 ft 10 kts 300°
2026-05-04 23:23 36.07877 -115.15826 2143 ft 13 kts 360°
2026-05-04 23:23 36.07983 -115.15828 2139 ft 17 kts 360°
2026-05-04 23:23 36.08114 -115.15827 2136 ft 16 kts
2026-05-04 23:23 36.08161 -115.15776 2133 ft 11 kts 83°
2026-05-04 23:24 36.08164 -115.15665 2129 ft 14 kts 89°
2026-05-04 23:24 36.08165 -115.15550 2124 ft 3 kts 90°
2026-05-04 23:24 36.08165 -115.15545 2124 ft 0 kts 90°
2026-05-04 23:25 36.08168 -115.15536 2124 ft 2 kts 50°
2026-05-04 23:25 36.08205 -115.15527 2122 ft 7 kts 349°
2026-05-04 23:25 36.08264 -115.15558 2122 ft 10 kts 335°
2026-05-04 23:25 36.08328 -115.15592 2123 ft 1 kts 336°
2026-05-04 23:26 36.08346 -115.15603 2123 ft 5 kts 335°
2026-05-04 23:26 36.08398 -115.15633 2123 ft 11 kts 334°
2026-05-04 23:26 36.08476 -115.15667 2123 ft 10 kts 14°
2026-05-04 23:26 36.08493 -115.15595 2119 ft 9 kts 136°
2026-05-04 23:27 36.08440 -115.15562 2119 ft 8 kts 153°
2026-05-04 23:27 36.08371 -115.15527 2119 ft 10 kts 181°
2026-05-04 23:27 36.08306 -115.15571 2122 ft 10 kts 188°
2026-05-04 23:27 36.08229 -115.15536 2122 ft 13 kts 155°
2026-05-04 23:28 36.08131 -115.15481 2123 ft 16 kts 156°
2026-05-04 23:28 36.08024 -115.15417 2125 ft 16 kts 154°
2026-05-04 23:28 36.07914 -115.15358 2125 ft 18 kts 158°
2026-05-04 23:28 36.07822 -115.15280 2124 ft 15 kts 125°
2026-05-04 23:29 36.07805 -115.15147 2119 ft 16 kts 90°
2026-05-04 23:29 36.07798 -115.15010 2113 ft 16 kts 95°
2026-05-04 23:29 36.07789 -115.14864 2108 ft 17 kts 95°
2026-05-04 23:29 36.07777 -115.14719 2105 ft 16 kts 98°
2026-05-04 23:30 36.07769 -115.14580 2100 ft 17 kts 95°
2026-05-04 23:30 36.07760 -115.14429 2095 ft 18 kts 95°
2026-05-04 23:30 36.07755 -115.14271 2090 ft 17 kts 90°
2026-05-04 23:30 36.07755 -115.14116 2086 ft 18 kts 90°
2026-05-04 23:31 36.07755 -115.13946 2079 ft 20 kts 91°
2026-05-04 23:31 36.07754 -115.13770 2075 ft 20 kts 90°
2026-05-04 23:31 36.07755 -115.13589 2068 ft 21 kts 90°
2026-05-04 23:31 36.07755 -115.13406 2064 ft 21 kts 90°
2026-05-04 23:32 36.07756 -115.13228 2058 ft 21 kts 90°
2026-05-04 23:32 36.07756 -115.13053 2054 ft 20 kts 90°
2026-05-04 23:32 36.07756 -115.12879 2049 ft 19 kts 90°
2026-05-04 23:32 36.07755 -115.12713 2046 ft 18 kts 90°
2026-05-04 23:33 36.07756 -115.12555 2043 ft 18 kts 90°
2026-05-04 23:33 36.07756 -115.12404 2040 ft 17 kts 90°
2026-05-04 23:33 36.07755 -115.12288 2038 ft 9 kts 102°
2026-05-04 23:33 36.07748 -115.12267 2039 ft 0 kts 123°
2026-05-04 23:35 36.07741 -115.12257 2039 ft 3 kts 133°
2026-05-04 23:35 36.07704 -115.12237 2039 ft 8 kts 171°
2026-05-04 23:35 36.07644 -115.12268 2040 ft 13 kts 260°
2026-05-04 23:35 36.07639 -115.12502 2044 ft 55 kts 269°
2026-05-04 23:36 36.07642 -115.13245 2060 ft 114 kts 269°
2026-05-04 23:36 36.07641 -115.14436 2102 ft 159 kts 269°
2026-05-04 23:36 36.07678 -115.15851 2500 ft 167 kts 262°
2026-05-04 23:36 36.07591 -115.17265 3048 ft 169 kts 254°
2026-05-04 23:37 36.07443 -115.18685 3821 ft 170 kts 264°
2026-05-04 23:37 36.07592 -115.20166 4419 ft 181 kts 272°
2026-05-04 23:37 36.07644 -115.21693 5114 ft 179 kts 263°
2026-05-04 23:37 36.07629 -115.23233 5689 ft 187 kts 264°
2026-05-04 23:38 36.07631 -115.24953 6036 ft 211 kts 265°
2026-05-04 23:38 36.07706 -115.26846 6524 ft 231 kts 279°
2026-05-04 23:38 36.08495 -115.28641 6963 ft 252 kts 316°
2026-05-04 23:38 36.10027 -115.29584 7505 ft 250 kts 353°
2026-05-04 23:39 36.11750 -115.29618 7961 ft 251 kts
2026-05-04 23:39 36.13477 -115.29838 8403 ft 253 kts 352°
2026-05-04 23:39 36.15223 -115.29846 8835 ft 250 kts 18°
2026-05-04 23:39 36.16639 -115.28725 9289 ft 243 kts 56°
2026-05-04 23:40 36.17286 -115.26841 9761 ft 241 kts 78°
2026-05-04 23:40 36.17766 -115.24848 10208 ft 243 kts 72°
2026-05-04 23:40 36.18332 -115.22893 10651 ft 244 kts 72°
2026-05-04 23:40 36.18919 -115.20921 11092 ft 247 kts 71°
2026-05-04 23:41 36.19519 -115.18914 11517 ft 250 kts 76°
2026-05-04 23:41 36.19680 -115.16801 11985 ft 250 kts 93°
2026-05-04 23:41 36.19622 -115.14703 12429 ft 252 kts 91°
2026-05-04 23:41 36.19621 -115.12536 12878 ft 254 kts 91°
2026-05-04 23:42 36.19623 -115.10324 13334 ft 256 kts 91°
2026-05-04 23:42 36.19622 -115.08118 13784 ft 258 kts 91°
2026-05-04 23:42 36.19622 -115.05912 14232 ft 260 kts 91°
2026-05-04 23:42 36.19622 -115.03669 14683 ft 262 kts 91°
2026-05-04 23:43 36.19622 -115.01421 15131 ft 264 kts 91°
2026-05-04 23:43 36.19622 -114.99122 15586 ft 266 kts 92°
2026-05-04 23:43 36.19621 -114.96827 16036 ft 269 kts 92°
2026-05-04 23:43 36.19619 -114.94520 16485 ft 271 kts 92°
2026-05-04 23:44 36.19618 -114.92181 16936 ft 273 kts 92°
2026-05-04 23:44 36.19616 -114.89835 17385 ft 275 kts 92°
2026-05-04 23:44 36.19613 -114.87448 17839 ft 277 kts 92°
2026-05-04 23:44 36.19610 -114.85087 18285 ft 279 kts 92°
2026-05-04 23:45 36.19606 -114.82677 18736 ft 281 kts 92°
2026-05-04 23:45 36.19602 -114.80256 19186 ft 284 kts 92°
2026-05-04 23:45 36.19597 -114.77822 19634 ft 286 kts 92°
2026-05-04 23:45 36.19592 -114.75338 20089 ft 288 kts 92°
2026-05-04 23:46 36.19586 -114.72840 20541 ft 291 kts 93°
2026-05-04 23:46 36.19580 -114.70367 20986 ft 293 kts 93°
2026-05-04 23:46 36.19573 -114.67847 21436 ft 296 kts 93°
2026-05-04 23:46 36.19568 -114.65263 21893 ft 298 kts 93°
2026-05-04 23:47 36.19563 -114.62698 22342 ft 301 kts 93°
2026-05-04 23:47 36.19558 -114.60143 22786 ft 303 kts 93°
2026-05-04 23:47 36.19551 -114.57516 23239 ft 306 kts 93°
2026-05-04 23:47 36.19544 -114.54874 23690 ft 309 kts 93°
2026-05-04 23:48 36.19536 -114.52211 24140 ft 311 kts 93°
2026-05-04 23:48 36.19528 -114.49515 24593 ft 314 kts 93°
2026-05-04 23:48 36.19519 -114.46824 25040 ft 318 kts 93°
2026-05-04 23:48 36.19509 -114.44095 25489 ft 321 kts 93°
2026-05-04 23:49 36.19498 -114.41330 25939 ft 323 kts 93°
2026-05-04 23:49 36.19487 -114.38529 26392 ft 325 kts 93°
2026-05-04 23:49 36.19476 -114.35764 26836 ft 326 kts 93°
2026-05-04 23:49 36.19463 -114.32932 27289 ft 327 kts 94°
2026-05-04 23:50 36.19450 -114.30128 27735 ft 328 kts 94°
2026-05-04 23:50 36.19436 -114.27322 28182 ft 328 kts 94°
2026-05-04 23:50 36.19454 -114.24500 28632 ft 328 kts 90°
2026-05-04 23:50 36.19695 -114.21702 29079 ft 329 kts 84°
2026-05-04 23:51 36.20062 -114.18884 29409 ft 332 kts 84°
2026-05-04 23:51 36.20401 -114.16065 29735 ft 334 kts 85°
2026-05-04 23:51 36.20726 -114.13239 30059 ft 336 kts 84°
2026-05-04 23:51 36.21066 -114.10360 30386 ft 338 kts 84°
2026-05-04 23:52 36.21408 -114.07480 30712 ft 339 kts 84°
2026-05-04 23:52 36.21750 -114.04599 31020 ft 341 kts 84°
2026-05-04 23:52 36.22093 -114.01691 31262 ft 345 kts 84°
2026-05-04 23:52 36.22442 -113.98740 31476 ft 350 kts 84°
2026-05-04 23:53 36.22795 -113.95737 31500 ft 361 kts 84°
2026-05-04 23:53 36.23166 -113.92577 31513 ft 373 kts 84°
2026-05-04 23:53 36.23542 -113.89378 31527 ft 384 kts 84°
2026-05-04 23:53 36.23934 -113.86038 31539 ft 396 kts 84°
2026-05-04 23:54 36.24335 -113.82607 31550 ft 407 kts 84°
2026-05-04 23:54 36.24740 -113.79142 31562 ft 417 kts 84°
2026-05-04 23:54 36.25163 -113.75507 31574 ft 428 kts 84°
2026-05-04 23:54 36.25586 -113.71865 31684 ft 434 kts 83°
2026-05-04 23:55 36.26019 -113.68137 31938 ft 438 kts 83°
2026-05-04 23:55 36.26453 -113.64380 32187 ft 441 kts 83°
2026-05-04 23:55 36.27321 -113.56840 32685 ft 446 kts 83°
2026-05-04 23:56 36.27755 -113.53054 32933 ft 449 kts 83°
2026-05-04 23:56 36.28193 -113.49225 33183 ft 451 kts 83°
2026-05-04 23:56 36.28631 -113.45376 33433 ft 453 kts 83°
2026-05-04 23:56 36.29071 -113.41503 33683 ft 455 kts 83°
2026-05-04 23:57 36.29508 -113.37641 33932 ft 457 kts 83°
2026-05-04 23:57 36.29952 -113.33704 34184 ft 459 kts 84°
2026-05-04 23:57 36.30389 -113.29823 34432 ft 460 kts 84°
2026-05-04 23:57 36.30903 -113.25880 34683 ft 462 kts 80°
2026-05-04 23:58 36.31661 -113.22021 34931 ft 464 kts 73°
2026-05-04 23:58 36.32781 -113.18298 35181 ft 465 kts 68°
2026-05-04 23:58 36.34082 -113.14640 35432 ft 465 kts 67°
2026-05-04 23:58 36.35367 -113.10998 35680 ft 466 kts 67°
2026-05-04 23:59 36.36646 -113.07286 35931 ft 466 kts 68°
2026-05-04 23:59 36.37925 -113.03580 36181 ft 466 kts 67°
2026-05-04 23:59 36.39206 -112.99894 36428 ft 466 kts 67°
2026-05-04 23:59 36.40494 -112.96201 36677 ft 466 kts 67°
2026-05-05 00:00 36.41783 -112.92507 36918 ft 467 kts 67°
2026-05-05 00:00 36.44368 -112.85089 36954 ft 479 kts 67°
2026-05-05 00:01 36.47026 -112.77459 36957 ft 491 kts 67°
2026-05-05 00:01 36.49769 -112.69572 36954 ft 502 kts 67°
2026-05-05 00:02 36.52544 -112.61574 36954 ft 512 kts 67°
2026-05-05 00:02 36.55371 -112.53410 36957 ft 518 kts 66°
2026-05-05 00:03 36.58190 -112.45247 36982 ft 517 kts 66°
2026-05-05 00:03 36.61004 -112.37079 37008 ft 516 kts 66°
2026-05-05 00:04 36.63729 -112.29147 37024 ft 494 kts 67°
2026-05-05 00:04 36.65036 -112.25333 37023 ft 477 kts 68°
2026-05-05 00:04 36.66312 -112.21609 37018 ft 467 kts 67°
2026-05-05 00:05 36.68859 -112.14156 36994 ft 473 kts 67°
2026-05-05 00:05 36.71438 -112.06592 36961 ft 478 kts 67°
2026-05-05 00:06 36.74028 -111.98976 36919 ft 477 kts 68°
2026-05-05 00:06 36.76543 -111.91561 36893 ft 475 kts 67°
2026-05-05 00:07 36.79095 -111.84016 36881 ft 475 kts 67°
2026-05-05 00:07 36.81642 -111.76471 36881 ft 476 kts 68°
2026-05-05 00:08 36.84192 -111.68903 36880 ft 476 kts 67°
2026-05-05 00:08 36.87178 -111.61574 36881 ft 476 kts 58°
2026-05-05 00:09 36.90589 -111.54574 36880 ft 476 kts 58°
2026-05-05 00:09 36.93911 -111.47553 36880 ft 476 kts 58°
2026-05-05 00:10 36.97266 -111.40481 36882 ft 475 kts 58°
2026-05-05 00:10 37.00574 -111.33496 36880 ft 461 kts 57°
2026-05-05 00:11 37.03732 -111.26814 36881 ft 446 kts 57°
2026-05-05 00:11 37.06839 -111.20235 36881 ft 435 kts 57°
2026-05-05 00:12 37.09893 -111.13757 36881 ft 430 kts 58°
2026-05-05 00:12 37.12886 -111.07398 36881 ft 428 kts 59°
2026-05-05 00:13 37.15895 -111.00987 36881 ft 431 kts 58°
2026-05-05 00:13 37.18922 -110.94528 36881 ft 434 kts 58°
2026-05-05 00:14 37.21959 -110.88032 36880 ft 437 kts 57°
2026-05-05 00:14 37.25041 -110.81428 36881 ft 438 kts 57°
2026-05-05 00:15 37.28079 -110.74907 36880 ft 437 kts 57°
2026-05-05 00:15 37.31145 -110.68310 36881 ft 437 kts 57°
2026-05-05 00:16 37.34189 -110.61747 36885 ft 437 kts 57°
2026-05-05 00:16 37.37226 -110.55187 36905 ft 437 kts 57°
2026-05-05 00:17 37.40255 -110.48631 36925 ft 437 kts 57°
2026-05-05 00:17 37.43292 -110.42046 36945 ft 437 kts 57°
2026-05-05 00:18 37.46350 -110.35400 36954 ft 437 kts 57°
2026-05-05 00:18 37.49255 -110.29073 36954 ft 437 kts 58°
2026-05-05 00:19 37.52284 -110.22465 36954 ft 437 kts 58°
2026-05-05 00:19 37.55305 -110.15861 36954 ft 437 kts 58°
2026-05-05 00:20 37.58328 -110.09239 36954 ft 437 kts 58°
2026-05-05 00:20 37.61345 -110.02616 36954 ft 437 kts 58°
2026-05-05 00:21 37.64361 -109.95984 36954 ft 437 kts 58°
2026-05-05 00:21 37.67378 -109.89333 36954 ft 437 kts 58°
2026-05-05 00:22 37.70392 -109.82677 36954 ft 437 kts 58°
2026-05-05 00:22 37.73406 -109.76007 36954 ft 437 kts 58°
2026-05-05 00:23 37.76384 -109.69402 36954 ft 437 kts 58°
2026-05-05 00:23 37.79378 -109.62748 36954 ft 437 kts 58°
2026-05-05 00:24 37.82368 -109.56091 36954 ft 437 kts 58°
2026-05-05 00:24 37.85345 -109.49448 36954 ft 437 kts 58°
2026-05-05 00:25 37.88322 -109.42790 36954 ft 437 kts 58°
2026-05-05 00:25 37.91314 -109.36089 36954 ft 437 kts 58°
2026-05-05 00:26 37.94287 -109.29413 36954 ft 437 kts 59°
2026-05-05 00:26 37.97232 -109.22787 36954 ft 438 kts 59°
2026-05-05 00:27 38.00218 -109.16057 36954 ft 438 kts 58°
2026-05-05 00:27 38.03199 -109.09322 36954 ft 442 kts 58°
2026-05-05 00:28 38.06217 -109.02491 36954 ft 447 kts 58°
2026-05-05 00:28 38.09266 -108.95574 36954 ft 452 kts 57°
2026-05-05 00:29 38.12192 -108.88551 36956 ft 455 kts 60°
2026-05-05 00:29 38.14963 -108.81355 36950 ft 453 kts 60°
2026-05-05 00:30 38.17760 -108.74222 36782 ft 455 kts 60°
2026-05-05 00:30 38.19173 -108.70606 36392 ft 451 kts 60°
2026-05-05 00:30 38.20529 -108.67127 36022 ft 443 kts 60°
2026-05-05 00:30 38.21891 -108.63626 35643 ft 436 kts 60°
2026-05-05 00:31 38.23210 -108.60243 35272 ft 429 kts 60°
2026-05-05 00:31 38.24540 -108.56834 34901 ft 422 kts 60°
2026-05-05 00:31 38.25817 -108.53555 34680 ft 412 kts 59°
2026-05-05 00:31 38.27075 -108.50320 34450 ft 402 kts 59°
2026-05-05 00:32 38.28287 -108.47200 34317 ft 390 kts 59°
2026-05-05 00:32 38.29459 -108.44179 34244 ft 372 kts 59°
2026-05-05 00:32 38.30585 -108.41274 33860 ft 366 kts 59°
2026-05-05 00:32 38.31709 -108.38386 33345 ft 368 kts 59°
2026-05-05 00:33 38.32852 -108.35449 32832 ft 373 kts 59°
2026-05-05 00:33 38.33988 -108.32516 32315 ft 374 kts 60°
2026-05-05 00:33 38.35131 -108.29555 31784 ft 370 kts 60°
2026-05-05 00:33 38.36245 -108.26671 31260 ft 366 kts 60°
2026-05-05 00:34 38.37356 -108.23792 30735 ft 362 kts 60°
2026-05-05 00:34 38.38466 -108.20912 30202 ft 357 kts 60°
2026-05-05 00:34 38.39536 -108.18135 29681 ft 352 kts 60°
2026-05-05 00:34 38.40605 -108.15356 29154 ft 348 kts 60°
2026-05-05 00:35 38.41663 -108.12605 28627 ft 344 kts 60°
2026-05-05 00:35 38.42704 -108.09898 28104 ft 341 kts 60°
2026-05-05 00:35 38.43744 -108.07189 27577 ft 338 kts 60°
2026-05-05 00:35 38.44768 -108.04518 27060 ft 335 kts 60°
2026-05-05 00:36 38.45767 -108.01907 26949 ft 323 kts 60°
2026-05-05 00:36 38.46756 -107.99320 26932 ft 332 kts 60°
2026-05-05 00:36 38.47767 -107.96652 26934 ft 336 kts 60°
2026-05-05 00:36 38.48780 -107.93970 26936 ft 336 kts 60°
2026-05-05 00:37 38.49795 -107.91283 26935 ft 334 kts 60°
2026-05-05 00:37 38.50794 -107.88639 26935 ft 334 kts 60°
2026-05-05 00:37 38.51808 -107.85950 26935 ft 334 kts 60°
2026-05-05 00:37 38.52810 -107.83292 26936 ft 334 kts 60°
2026-05-05 00:38 38.53807 -107.80646 26935 ft 334 kts 60°
2026-05-05 00:38 38.54821 -107.77953 26935 ft 334 kts 60°
2026-05-05 00:38 38.55817 -107.75305 26935 ft 334 kts 60°
2026-05-05 00:38 38.56821 -107.72630 26936 ft 334 kts 60°
2026-05-05 00:39 38.57828 -107.69949 26936 ft 334 kts 60°
2026-05-05 00:39 38.58827 -107.67285 26935 ft 334 kts 60°
2026-05-05 00:39 38.59835 -107.64595 26935 ft 334 kts 60°
2026-05-05 00:39 38.60831 -107.61933 26935 ft 334 kts 60°
2026-05-05 00:40 38.61834 -107.59252 26935 ft 334 kts 60°
2026-05-05 00:40 38.62840 -107.56561 26936 ft 334 kts 60°
2026-05-05 00:40 38.63834 -107.53899 26936 ft 334 kts 60°
2026-05-05 00:40 38.64834 -107.51218 26936 ft 334 kts 60°
2026-05-05 00:41 38.65834 -107.48542 26943 ft 334 kts 60°
2026-05-05 00:41 38.66853 -107.45856 26957 ft 339 kts 60°
2026-05-05 00:41 38.67897 -107.43122 26959 ft 348 kts 60°
2026-05-05 00:41 38.68970 -107.40292 26967 ft 357 kts 60°
2026-05-05 00:42 38.70074 -107.37376 26973 ft 366 kts 60°
2026-05-05 00:42 38.71181 -107.34448 26979 ft 374 kts 61°
2026-05-05 00:42 38.72328 -107.31412 26988 ft 382 kts 61°
2026-05-05 00:42 38.73488 -107.28339 26995 ft 389 kts 61°
2026-05-05 00:43 38.74670 -107.25202 26999 ft 396 kts 61°
2026-05-05 00:43 38.75879 -107.21994 27000 ft 402 kts 61°
2026-05-05 00:43 38.77090 -107.18774 26999 ft 409 kts 61°
2026-05-05 00:43 38.78332 -107.15466 26999 ft 414 kts 61°
2026-05-05 00:44 38.79583 -107.12135 26999 ft 420 kts 61°
2026-05-05 00:44 38.80860 -107.08729 27000 ft 425 kts 61°
2026-05-05 00:44 38.82144 -107.05299 27000 ft 430 kts 61°
2026-05-05 00:44 38.83432 -107.01856 26999 ft 434 kts 61°
2026-05-05 00:45 38.84742 -106.98347 27000 ft 435 kts 61°
2026-05-05 00:45 38.86039 -106.94870 27001 ft 435 kts 61°
2026-05-05 00:45 38.87351 -106.91350 27004 ft 435 kts 61°
2026-05-05 00:45 38.88646 -106.87869 27005 ft 435 kts 61°
2026-05-05 00:46 38.89935 -106.84403 27007 ft 434 kts 61°
2026-05-05 00:46 38.91251 -106.80858 27008 ft 434 kts 60°
2026-05-05 00:46 38.92536 -106.77394 27014 ft 433 kts 60°
2026-05-05 00:46 38.93826 -106.73912 27025 ft 432 kts 60°
2026-05-05 00:47 38.95054 -106.70595 27037 ft 431 kts 60°
2026-05-05 00:47 38.96322 -106.67163 27049 ft 430 kts 60°
2026-05-05 00:47 38.97612 -106.63669 27061 ft 428 kts 60°
2026-05-05 00:47 38.98877 -106.60242 27073 ft 428 kts 60°
2026-05-05 00:48 39.00147 -106.56792 27085 ft 427 kts 60°
2026-05-05 00:48 39.01414 -106.53339 27089 ft 426 kts 61°
2026-05-05 00:48 39.02625 -106.50032 27089 ft 424 kts 61°
2026-05-05 00:48 39.03916 -106.46497 27091 ft 422 kts 61°
2026-05-05 00:49 39.05155 -106.43106 27091 ft 422 kts 61°
2026-05-05 00:49 39.06409 -106.39674 27091 ft 424 kts 61°
2026-05-05 00:49 39.07648 -106.36272 27091 ft 424 kts 61°
2026-05-05 00:49 39.08888 -106.32867 27091 ft 424 kts 61°
2026-05-05 00:50 39.10120 -106.29481 27084 ft 425 kts 62°
2026-05-05 00:50 39.11341 -106.26123 26855 ft 426 kts 62°
2026-05-05 00:50 39.12578 -106.22710 26604 ft 424 kts 62°
2026-05-05 00:50 39.13801 -106.19334 26356 ft 421 kts 62°
2026-05-05 00:51 39.15000 -106.16020 26113 ft 419 kts 62°
2026-05-05 00:51 39.16211 -106.12667 25866 ft 417 kts 62°
2026-05-05 00:51 39.17417 -106.09313 25618 ft 416 kts 62°
2026-05-05 00:51 39.18597 -106.06031 25375 ft 415 kts 62°
2026-05-05 00:52 39.19802 -106.02673 25126 ft 414 kts 62°
2026-05-05 00:52 39.20990 -105.99361 24879 ft 413 kts 62°
2026-05-05 00:52 39.22187 -105.96020 24629 ft 411 kts 62°
2026-05-05 00:52 39.23360 -105.92741 24384 ft 410 kts 62°
2026-05-05 00:53 39.24537 -105.89457 24137 ft 409 kts 62°
2026-05-05 00:53 39.25705 -105.86220 23893 ft 408 kts 61°
2026-05-05 00:53 39.26894 -105.82927 23617 ft 407 kts 61°
2026-05-05 00:53 39.28040 -105.79738 23224 ft 393 kts 61°
2026-05-05 00:54 39.29164 -105.76605 22862 ft 385 kts 61°
2026-05-05 00:54 39.30281 -105.73502 22512 ft 389 kts 61°
2026-05-05 00:54 39.31393 -105.70409 22022 ft 389 kts 61°
2026-05-05 00:54 39.32526 -105.67245 21514 ft 384 kts 61°
2026-05-05 00:55 39.33640 -105.64171 21016 ft 379 kts 61°
2026-05-05 00:55 39.34754 -105.61136 20518 ft 376 kts 61°
2026-05-05 00:55 39.35856 -105.58124 20022 ft 373 kts 61°
2026-05-05 00:55 39.36962 -105.55091 19520 ft 371 kts 61°
2026-05-05 00:56 39.38043 -105.52126 19027 ft 370 kts 61°
2026-05-05 00:56 39.39136 -105.49123 18526 ft 368 kts 61°
2026-05-05 00:56 39.40208 -105.46173 18030 ft 366 kts 62°
2026-05-05 00:56 39.41123 -105.43095 17634 ft 365 kts 70°
2026-05-05 00:57 39.41616 -105.40016 17272 ft 364 kts 81°
2026-05-05 00:57 39.41703 -105.36768 16898 ft 358 kts 88°
2026-05-05 00:57 39.41696 -105.33582 16523 ft 353 kts 88°
2026-05-05 00:57 39.41725 -105.30456 16153 ft 351 kts 87°
2026-05-05 00:58 39.41757 -105.27274 15775 ft 350 kts 87°
2026-05-05 00:58 39.41776 -105.24143 15402 ft 349 kts 88°
2026-05-05 00:58 39.41793 -105.21018 15027 ft 348 kts 88°
2026-05-05 00:58 39.41810 -105.17904 14652 ft 346 kts 88°
2026-05-05 00:59 39.41824 -105.14823 14278 ft 344 kts 88°
2026-05-05 00:59 39.41837 -105.11726 13901 ft 342 kts 88°
2026-05-05 00:59 39.41849 -105.08730 13534 ft 340 kts 88°
2026-05-05 00:59 39.41861 -105.05693 13160 ft 338 kts 87°
2026-05-05 01:00 39.41870 -105.02754 13011 ft 329 kts 87°
2026-05-05 01:00 39.41877 -104.99920 13002 ft 306 kts 86°
2026-05-05 01:00 39.41882 -104.97327 13011 ft 278 kts 86°
2026-05-05 01:00 39.41892 -104.94867 13011 ft 274 kts 84°
2026-05-05 01:01 39.42022 -104.92409 12756 ft 277 kts 78°
2026-05-05 01:01 39.42269 -104.89983 12245 ft 269 kts 78°
2026-05-05 01:01 39.42490 -104.87595 11745 ft 264 kts 78°
2026-05-05 01:01 39.42695 -104.85278 11251 ft 261 kts 78°
2026-05-05 01:02 39.42902 -104.82981 10755 ft 258 kts 78°
2026-05-05 01:02 39.43107 -104.80693 10254 ft 255 kts 78°
2026-05-05 01:02 39.43305 -104.78448 9756 ft 251 kts 78°
2026-05-05 01:02 39.43505 -104.76211 9254 ft 248 kts 77°
2026-05-05 01:03 39.43842 -104.74069 9023 ft 237 kts 69°
2026-05-05 01:03 39.44408 -104.72098 9006 ft 238 kts 59°
2026-05-05 01:03 39.45224 -104.70274 9008 ft 237 kts 50°
2026-05-05 01:03 39.46256 -104.68632 9008 ft 234 kts 42°
2026-05-05 01:04 39.47460 -104.67216 9007 ft 232 kts 32°
2026-05-05 01:04 39.50260 -104.65278 9009 ft 227 kts 17°
2026-05-05 01:04 39.51778 -104.64759 9009 ft 227 kts
2026-05-05 01:05 39.53348 -104.64589 9009 ft 226 kts 359°
2026-05-05 01:05 39.54898 -104.64554 9007 ft 224 kts 359°
2026-05-05 01:05 39.56403 -104.64504 9005 ft 215 kts 359°
2026-05-05 01:05 39.57908 -104.64481 9006 ft 215 kts 358°
2026-05-05 01:06 39.59402 -104.64473 9005 ft 214 kts 358°
2026-05-05 01:06 39.60862 -104.64443 9004 ft 213 kts 359°
2026-05-05 01:06 39.62303 -104.64414 9005 ft 214 kts 358°
2026-05-05 01:06 39.63775 -104.64408 9003 ft 214 kts 355°
2026-05-05 01:07 39.65155 -104.64851 8958 ft 212 kts 329°
2026-05-05 01:07 39.66492 -104.65563 8967 ft 211 kts 349°
2026-05-05 01:07 39.67970 -104.65565 8794 ft 215 kts
2026-05-05 01:07 39.69445 -104.65208 8268 ft 220 kts
2026-05-05 01:08 39.70906 -104.64865 7766 ft 212 kts
2026-05-05 01:08 39.72339 -104.64677 7445 ft 208 kts
2026-05-05 01:08 39.73769 -104.64491 7123 ft 208 kts
2026-05-05 01:08 39.75156 -104.64383 6891 ft 201 kts 360°
2026-05-05 01:09 39.76565 -104.64327 6714 ft 204 kts 359°
2026-05-05 01:09 39.77951 -104.64302 6485 ft 204 kts 359°
2026-05-05 01:09 39.79299 -104.64270 6267 ft 186 kts 358°
2026-05-05 01:09 39.80502 -104.64275 6603 ft 164 kts 358°
2026-05-05 01:10 39.81540 -104.64241 6799 ft 159 kts 358°
2026-05-05 01:10 39.82654 -104.64103 7170 ft 154 kts
2026-05-05 01:10 39.83744 -104.63856 7099 ft 170 kts
2026-05-05 01:10 39.84872 -104.63605 7046 ft 167 kts
2026-05-05 01:11 39.86007 -104.63399 7044 ft 166 kts
2026-05-05 01:11 39.87125 -104.63200 7046 ft 166 kts
2026-05-05 01:11 39.88312 -104.63068 7166 ft 164 kts
2026-05-05 01:11 39.89469 -104.62981 7206 ft 171 kts 359°
2026-05-05 01:12 39.90614 -104.62900 7255 ft 175 kts
2026-05-05 01:12 39.91719 -104.62215 7027 ft 184 kts 38°
2026-05-05 01:12 39.92293 -104.60717 7035 ft 198 kts 77°
2026-05-05 01:12 39.92281 -104.58936 6979 ft 194 kts 80°
2026-05-05 01:13 39.92506 -104.57259 7169 ft 184 kts 66°
2026-05-05 01:13 39.92950 -104.55753 7348 ft 182 kts 56°
2026-05-05 01:13 39.93583 -104.54378 7615 ft 176 kts 47°
2026-05-05 01:13 39.94331 -104.53066 7762 ft 185 kts 47°
2026-05-05 01:14 39.95078 -104.51713 7887 ft 183 kts 48°
2026-05-05 01:14 39.95840 -104.50320 8040 ft 191 kts 47°
2026-05-05 01:14 39.96606 -104.48898 8220 ft 194 kts 49°
2026-05-05 01:14 39.97354 -104.47452 8425 ft 194 kts 51°
2026-05-05 01:15 39.97995 -104.45929 8787 ft 198 kts 64°
2026-05-05 01:15 39.98403 -104.44158 8927 ft 210 kts 62°
2026-05-05 01:15 39.99088 -104.42493 8788 ft 215 kts 50°
2026-05-05 01:15 39.99913 -104.40857 8685 ft 218 kts 48°
2026-05-05 01:16 40.00949 -104.39483 8561 ft 208 kts 23°
2026-05-05 01:16 40.02293 -104.39033 8573 ft 199 kts 352°
2026-05-05 01:16 40.03550 -104.39629 8579 ft 196 kts 319°
2026-05-05 01:16 40.04322 -104.41102 8597 ft 203 kts 287°